Location: Cedar Falls
(42.5280°N, 92.4450°W)
Time: 07:12:18
(UTC-06:00)

NOSS 3-1 (C) - Visible Passes

Search period start: 11 December 2017 00:00
Search period end: 21 December 2017 00:00
Orbit: 813 x 1395 km, 63.4° (Epoch: 01 December)

Date Brightness Start Highest point End Pass type
(mag) Time Alt. Az. Time Alt. Az. Time Alt. Az.
11 Dec 4.3 16:55:57 10° WSW 17:01:30 46° NW 17:07:48 10° NNE visible
11 Dec 5.6 18:50:30 10° NW 18:54:17 16° NNW 18:57:34 12° NNE visible
12 Dec 5.4 18:03:48 10° WNW 18:08:15 20° NNW 18:13:06 10° NNE visible
12 Dec 5.9 19:59:16 10° NNW 20:01:09 12° N 20:01:09 12° N visible
13 Dec 5.0 17:17:22 10° W 17:22:21 27° NNW 17:27:54 10° NNE visible
13 Dec 5.7 19:12:57 10° NNW 19:15:55 13° N 19:17:20 12° N visible
14 Dec 5.6 18:26:15 10° NW 18:29:42 15° NNW 18:33:24 10° NNE visible
14 Dec 6.0 20:20:07 10° NNW 20:20:55 12° NNW 20:20:55 12° NNW visible
15 Dec 5.4 17:39:30 10° WNW 17:43:36 18° NNW 17:48:02 10° NNE visible
15 Dec 5.8 19:34:33 10° NNW 19:37:06 13° N 19:37:06 13° N visible
16 Dec 5.7 18:48:31 10° NNW 18:51:25 13° N 18:53:16 12° NNE visible
16 Dec 6.1 20:40:19 10° NNW 20:40:40 11° NNW 20:40:40 11° NNW visible
17 Dec 5.7 18:01:59 10° NW 18:05:09 14° N 18:08:30 10° NNE visible
17 Dec 5.8 19:55:06 10° NNW 19:56:51 14° N 19:56:51 14° N visible
18 Dec 5.5 17:15:14 10° NW 17:18:59 16° NNW 17:23:00 10° NNE visible
18 Dec 5.7 19:09:42 10° NNW 19:13:03 14° N 19:13:03 14° N visible
18 Dec 6.3 21:00:19 10° NNW 21:00:27 10° NNW 21:00:27 10° NNW visible
19 Dec 5.7 18:23:56 10° NNW 18:26:54 13° N 18:29:15 11° NNE visible
19 Dec 5.9 20:15:11 10° NNW 20:16:38 15° N 20:16:38 15° N visible
20 Dec 5.6 17:37:39 10° NNW 17:40:37 13° N 17:43:44 10° NNE visible
20 Dec 5.6 19:30:01 10° NNW 19:32:52 17° N 19:32:52 17° N visible
